Regional Weather Roundup
Issued by NWS Sioux Falls, SD

Home | Current Version | Previous Version | Text Only | Print | Product List | Glossary On
Versions: 1 2 3 4 5 6 7 8 9 10 11 12 13 14 15 16 17 18 19 20 21 22 23 24 25 26 27 28 29 30 31 32 33 34 35 36 37 38 39 40 41 42 43 44 45 46 47 48 49 50
000
ASUS43 KFSD 032310
RWRFSD

WEATHER ROUNDUP FOR SE SOUTH DAKOTA/SW MINNESOTA/NW IOWA
NATIONAL WEATHER SERVICE SIOUX FALLS SD
600 PM CDT MON AUG 03 2015

NOTE: "FAIR" INDICATES FEW OR NO CLOUDS BELOW 12,000 FEET WITH NO
SIGNIFICANT WEATHER AND OR OBSTRUCTIONS TO VISIBILITY.


SDZ038>040-050-052>070-040000-
SOUTHEAST SOUTH DAKOTA

CITY           SKY/WX    TMP DP  RH WIND       PRES   REMARKS
BROOKINGS      SUNNY     79  54  41 NW7       29.98S
CHAMBERLAIN    SUNNY     81  60  48 S3        29.95F
HURON          SUNNY     82  54  37 N5        29.94F
MADISON        FAIR      77  55  47 NW7       29.97F
MITCHELL       SUNNY     84  61  45 NW6       29.94F
SIOUX FALLS    MOSUNNY   82  58  43 CALM      29.95F
WINNER         FAIR      86  56  35 E13       29.95F
YANKTON        SUNNY     81  61  50 E6        29.93F
$$

MNZ071-072-080-081-089-090-097-098-040000-
SOUTHWEST MINNESOTA

CITY           SKY/WX    TMP DP  RH WIND       PRES   REMARKS
FAIRMONT       SUNNY     79  52  38 NW13      29.94S
JACKSON        MOSUNNY   79  54  41 W8        29.96S
LUVERNE        MOSUNNY   79  54  41 NW5       29.97S
MARSHALL       SUNNY     79  52  38 NW7       29.96S
MONTEVIDEO     SUNNY     82  54  36 N10       29.95F
PIPESTONE      MOSUNNY   79  54  41 NW9       29.97F
REDWOOD FALLS  SUNNY     80  51  36 NW10G20   29.93S
TRACY          MOSUNNY   79  57  47 NW6       29.95S
WINDOM         SUNNY     79  54  41 NW10G17   29.95S
WORTHINGTON    MOSUNNY   75  54  46 NW7       29.96F
$$

IAZ001>003-012>014-020>022-031-032-NEZ013-014-SDZ071-040000-
NORTHWEST IOWA

CITY           SKY/WX    TMP DP  RH WIND       PRES   REMARKS
CHEROKEE       SUNNY     78  59  51 NW5       29.96F
DENISON        SUNNY     77  63  61 N5        29.95S
ESTHERVILLE    PTSUNNY   79  56  45 NW10      29.95S
LE MARS        SUNNY     79  61  53 W3        29.97S
ORANGE CITY    SUNNY     77  59  53 W5        29.97S
SHELDON        MOSUNNY   79  59  50 W6        29.95F
SIOUX CITY     SUNNY     82  56  40 CALM      29.95F
SPENCER        MOSUNNY   81  55  40 VRB7      29.96F
STORM LAKE     SUNNY     77  57  50 VRB7      29.98S
$$

ABBREVIATIONS USED IN REMARKS
   TC - TEMPERATURE IN CELSIUS
  WCI - WIND CHILL INDEX
   HX - HEAT INDEX
  VSB - VISIBILITY



USA.gov is the U.S. government's official web portal to all federal, state and local government web resources and services.